TimeEST,TemperatureF,Dew PointF,Humidity,Sea Level PressureIn,VisibilityMPH,Wind Direction,Wind SpeedMPH,Gust SpeedMPH,PrecipitationIn,Events,Conditions,WindDirDegrees,DateUTC
12:53 AM,10.9,1.0,64,30.01,10.0,Calm,Calm,-,N/A,,Mostly Cloudy,0,2013-02-06 05:53:00
1:53 AM,8.1,-0.0,70,30.01,9.0,Calm,Calm,-,N/A,,Scattered Clouds,0,2013-02-06 06:53:00
2:53 AM,10.9,-2.0,56,29.98,10.0,East,4.6,-,N/A,,Overcast,100,2013-02-06 07:53:00
3:53 AM,10.9,-4.0,51,29.98,10.0,Calm,Calm,-,N/A,,Mostly Cloudy,0,2013-02-06 08:53:00
4:53 AM,10.9,-0.0,61,29.98,10.0,Calm,Calm,-,N/A,,Overcast,0,2013-02-06 09:53:00
5:53 AM,12.9,-0.0,56,29.98,10.0,NNW,3.5,-,N/A,,Overcast,330,2013-02-06 10:53:00
6:53 AM,12.9,3.0,65,29.99,7.0,Calm,Calm,-,0.00,Snow,Light Snow,0,2013-02-06 11:53:00
7:53 AM,14.0,6.1,71,29.99,9.0,Calm,Calm,-,0.00,Snow,Light Snow,0,2013-02-06 12:53:00
8:53 AM,15.1,9.0,77,29.98,2.5,NNW,3.5,-,0.00,Snow,Light Snow,340,2013-02-06 13:53:00
9:06 AM,15.8,8.6,73,29.97,2.5,Calm,Calm,-,0.00,Snow,Light Snow,0,2013-02-06 14:06:00
9:07 AM,15.8,8.6,73,29.97,1.0,Calm,Calm,-,0.00,Snow,Light Snow,0,2013-02-06 14:07:00
9:53 AM,16.0,12.0,84,29.98,1.2,Calm,Calm,-,0.00,Snow,Light Snow,0,2013-02-06 14:53:00
10:15 AM,15.8,12.2,86,29.96,1.2,Calm,Calm,-,0.00,Snow,Light Snow,0,2013-02-06 15:15:00
10:32 AM,17.6,12.2,79,29.96,1.2,North,4.6,-,0.00,Snow,Light Snow,350,2013-02-06 15:32:00
10:53 AM,18.0,14.0,84,29.97,3.0,Calm,Calm,-,0.00,Snow,Light Snow,0,2013-02-06 15:53:00
11:46 AM,19.4,15.8,86,29.93,9.0,Calm,Calm,-,0.00,Snow,Light Snow,0,2013-02-06 16:46:00
11:53 AM,19.9,16.0,85,29.94,6.0,Calm,Calm,-,0.00,Snow,Light Snow,0,2013-02-06 16:53:00
12:53 PM,25.0,19.0,78,29.92,10.0,Calm,Calm,-,0.00,,Scattered Clouds,0,2013-02-06 17:53:00
1:53 PM,28.9,21.0,72,29.92,10.0,Calm,Calm,-,N/A,,Scattered Clouds,0,2013-02-06 18:53:00
2:53 PM,32.0,17.1,54,29.93,10.0,WSW,9.2,17.3,N/A,,Scattered Clouds,250,2013-02-06 19:53:00
3:53 PM,30.0,14.0,51,29.94,10.0,West,10.4,17.3,N/A,,Mostly Cloudy,280,2013-02-06 20:53:00
4:53 PM,28.9,14.0,54,29.98,10.0,WNW,8.1,-,N/A,,Scattered Clouds,290,2013-02-06 21:53:00
5:53 PM,26.1,5.0,41,30.02,10.0,WNW,6.9,-,N/A,,Partly Cloudy,300,2013-02-06 22:53:00
6:53 PM,23.0,3.9,44,30.07,10.0,WNW,5.8,-,N/A,,Clear,290,2013-02-06 23:53:00
7:53 PM,21.0,-2.0,36,30.10,10.0,WNW,8.1,18.4,N/A,,Clear,300,2013-02-07 00:53:00
8:53 PM,19.0,-0.9,42,30.14,10.0,WNW,8.1,-,N/A,,Clear,300,2013-02-07 01:53:00
9:53 PM,17.1,-4.0,39,30.18,10.0,NW,19.6,25.3,N/A,,Clear,320,2013-02-07 02:53:00
10:53 PM,14.0,-5.8,41,30.19,10.0,NW,16.1,26.5,N/A,,Clear,310,2013-02-07 03:53:00
11:53 PM,12.9,-6.0,43,30.25,10.0,NW,8.1,18.4,N/A,,Clear,310,2013-02-07 04:53:00